White Center, Washington, United States
Lat: 47.52N, Lon: 122.35W
Wx Zone: WAZ508
Local Info
Past Weather Observations for Today

NOTE: This archive is for the closest National Weather Service station to White Center. Information may differ from the station used for current weather conditions.

Click here for Long-term Archive

Time Weather Temperature Dewpoint Humidity Pressure Winds Precip Visibility
21:53
Overcast
61°F / 16°C 52°F / 11°C 72% 30.06 in
(1018 mb)
SSE 8.1 mph
(SSE 13 kph)
- 10SM
20:53
Mostly Cloudy
61°F / 16°C 54°F / 12°C 77% 30.06 in
(1018 mb)
SSE 9.2 mph
(SSE 15 kph)
- 10SM
19:53
Overcast
63°F / 17°C 52°F / 11°C 68% 30.06 in
(1018 mb)
SSE 9.2 mph
(SSE 15 kph)
- 10SM
18:53
Overcast
63°F / 17°C 55°F / 13°C 77% 30.04 in
(1017 mb)
SE 9.2 mph
(SE 15 kph)
- 10SM
17:53
Mostly Cloudy
Light Rain
63°F / 17°C 55°F / 13°C 77% 30.04 in
(1017 mb)
SE 13.8 mph
(SE 22 kph)
- 10SM
16:53
Mostly Cloudy
66°F / 19°C 57°F / 14°C 73% 30.06 in
(1018 mb)
S 10.4 mph
(S 17 kph)
- 10SM
15:53
Mostly Cloudy
63°F / 17°C 57°F / 14°C 83% 30.06 in
(1018 mb)
SSE 8.1 mph
(SSE 13 kph)
0.00 in
(0.00 mm)
10SM
14:53
Overcast
Light Rain
63°F / 17°C 55°F / 13°C 77% 30.06 in
(1018 mb)
SSE 9.2 mph
(SSE 15 kph)
0.00 in
(0.00 mm)
6SM
13:53
Overcast
Light Rain
63°F / 17°C 57°F / 14°C 83% 30.06 in
(1018 mb)
S 9.2 mph
(S 15 kph)
0.00 in
(0.00 mm)
7SM
12:53
Overcast
Light Rain
63°F / 17°C 57°F / 14°C 83% 30.04 in
(1017 mb)
SSE 9.2 mph
(SSE 15 kph)
- 9SM
11:53
Overcast
Light Rain
63°F / 17°C 55°F / 13°C 77% 30.01 in
(1016 mb)
Variable 6.9 mph
(Variable 11 kph)
- 10SM
10:53
Overcast
Light Rain
64°F / 18°C 61°F / 16°C 88% 30.01 in
(1016 mb)
SSE 8.1 mph
(SSE 13 kph)
0.00 in
(0.00 mm)
2SM
10:46
Overcast
Light Rain
64°F / 18°C 61°F / 16°C 88% 30.01 in
(1016 mb)
SE 10.4 mph
(SE 17 kph)
0.00 in
(0.00 mm)
5SM
10:05
Overcast
Light Rain
64°F / 18°C 61°F / 16°C 88% 30.01 in
(1016 mb)
SE 6.9 mph
(SE 11 kph)
0.00 in
(0.00 mm)
6SM
09:53
Overcast
Light Rain
64°F / 18°C 61°F / 16°C 88% 30.01 in
(1016 mb)
SE 4.6 mph
(SE 7 kph)
0.00 in
(0.00 mm)
4SM
08:53
Overcast
Light Rain
64°F / 18°C 59°F / 15°C 83% 30.01 in
(1016 mb)
SSE 8.1 mph
(SSE 13 kph)
- 5SM
07:53
Overcast
63°F / 17°C 59°F / 15°C 88% 30.01 in
(1016 mb)
Calm - 10SM
06:53
Overcast
Light Rain
63°F / 17°C 59°F / 15°C 88% 29.98 in
(1015 mb)
E 6.9 mph
(E 11 kph)
- 8SM
05:53
Overcast
Light Rain
63°F / 17°C 57°F / 14°C 83% 29.98 in
(1015 mb)
Calm - 7SM
05:40
Overcast
Heavy Rain
63°F / 17°C 57°F / 14°C 83% 29.98 in
(1015 mb)
Variable 4.6 mph
(Variable 7 kph)
- 2SM
04:53
Mostly Cloudy
63°F / 17°C 55°F / 13°C 77% 29.98 in
(1015 mb)
Calm - 10SM
04:47
Partly Cloudy
63°F / 17°C 55°F / 13°C 77% 29.98 in
(1015 mb)
Calm - 10SM
03:53
Overcast
61°F / 16°C 55°F / 13°C 83% 29.98 in
(1015 mb)
Calm - 10SM
02:53
Overcast
63°F / 17°C 57°F / 14°C 83% 29.98 in
(1015 mb)
NNW 3.5 mph
(NNW 6 kph)
0.00 in
(0.00 mm)
10SM
01:53
Mostly Cloudy
Light Rain
64°F / 18°C 59°F / 15°C 83% 29.98 in
(1015 mb)
Calm 0.00 in
(0.00 mm)
10SM
00:53
Mostly Cloudy
Light Rain
64°F / 18°C 59°F / 15°C 83% 30.01 in
(1016 mb)
SSW 3.5 mph
(SSW 6 kph)
0.00 in
(0.00 mm)
10SM
Time Weather Temperature Dewpoint Humidity Pressure Winds Precip Visibility


Weather for websites

WeatherForYou.com, LLC is not responsible for any damages or problems caused by this service. Current weather conditions are obtained from the closest station including government and personal stations which may have varying degrees of accuracy. Weather forecasts are derived from the NOAA NDFD. Like all things, this site belongs to Jesus Christ... He just trusts me to maintain it. If you have any questions or comments email webmaster@weatherforyou.com

Copyright © 2014, WeatherForYou.com LLC. All rights reserved.